Regional Weather Roundup
Issued by NWS Northern Indiana

Home | Current Version | Previous Version | Graphics & Text | Print | Product List | Glossary On
Versions: 1 2 3 4 5 6 7 8 9 10 11 12 13 14 15 16 17 18 19 20 21 22 23 24 25 26 27 28 29 30 31 32 33 34 35 36 37 38 39 40 41 42 43 44 45 46 47 48 49 50
000
ASUS43 KIWX 031500
RWRIWX

KIWX WEATHER ROUNDUP
NATIONAL WEATHER SERVICE NORTHERN INDIANA
1100 AM EDT TUE MAY 03 2016

NOTE: "FAIR" INDICATES FEW OR NO CLOUDS BELOW 12,000 FEET WITH NO
SIGNIFICANT WEATHER AND/OR OBSTRUCTIONS TO VISIBILITY.

* THESE STATIONS ARE NOT UNDER NWS QUALITY CONTROL. THEY ALSO MAY NOT
  REPORT WEATHER SUCH AS PRECIPITATION OR FOG.

INZ001>027-031600-
NORTHERN INDIANA

CITY           SKY/WX    TMP DP  RH WIND       PRES   REMARKS
GARY*          MOSUNNY   59  43  55 NW7       29.97F
SOUTH BEND     SUNNY     57  43  59 N5        29.96F
GOSHEN         SUNNY     56  46  69 VRB5      29.95S
FORT WAYNE     CLOUDY    55  45  68 N5        29.95F

$$
INZ028>050-031600-
CENTRAL INDIANA

CITY           SKY/WX    TMP DP  RH WIND       PRES   REMARKS
LAFAYETTE      PTSUNNY   55  42  61 N8        29.97F
KOKOMO*        CLOUDY    54  46  76 N7        29.95F
MUNCIE*        CLOUDY    54  46  74 NE8       29.94S
INDIANAPOLIS   CLOUDY    51  47  86 N8        29.95S

$$
MIZ043>046-050>051-056>058-064>065-071>073-077>080-031600-
SOUTHWEST LOWER MICHIGAN

CITY           SKY/WX    TMP DP  RH WIND       PRES   REMARKS
BATTLE CREEK   SUNNY     58  38  47 W6        29.93F
BENTON HARBOR  SUNNY     56  37  49 W8        29.95F
COLDWATER*     SUNNY     57  39  51 CALM      29.93F
HILLSDALE*     SUNNY     56  34  43 CALM      29.92F
HOLLAND        SUNNY     57  35  43 W10       29.94F
GRAND RAPIDS   MOSUNNY   59  40  49 W9        29.93F
KALAMAZOO      SUNNY     58  40  51 VRB3      29.94F
THREE RIVERS*  FAIR      59  42  53 W7        29.94

$$
OHZ001>008-015>018-024>025-031600-
NORTHWEST OHIO

CITY           SKY/WX    TMP DP  RH WIND       PRES   REMARKS
DEFIANCE       CLOUDY    54  44  69 CALM      29.94S
FINDLAY        CLOUDY    54  43  66 NW6       29.92S
TOLEDO EXPRESS CLOUDY    55  45  68 NW3       29.92F
TOLEDO METCALF PTSUNNY   55  43  63 CALM      29.93S
LIMA           CLOUDY    52  46  80 N5        29.93S

$$
AND FOR LAKE MICHIGAN COASTAL AND OPEN LAKE BUOY OBSERVATIONS

STATION/POSITION TEMP    WIND        PRES    VSBY  WAVE
                 AIR SEA DIR/SP/G                  HT/PER
                 (F)     (DEG/KT/KT) (MB)    (MI)  (FT/S)
CALUMET HARBOR    57     230/  4/  6 1014.1F
MICHIGAN CITY     46     200/  3/  4   N/A
BURNS HARBOR      49     280/  2/  4 1015.6F
SAINT JOSEPH      50     200/  2/  3 1015.6R
4 MI NW BRIDGMAN  46 48                N/A           1

$$
&&




USA.gov is the U.S. government's official web portal to all federal, state and local government web resources and services.